Main page
METAR-TAF:

METAR-TAF

Airports :

Farnborough Airport

Farnborough, England

latitude: 51-17N, longitude: 000-46W, elevation: 65 m

Current weather observation

The report was made 31 minutes ago, at 20:50 UTC
Wind 7 kt from the South
Temperature 9°C
Humidity 93%
Pressure 1025 hPa
Visibility 10 km or more
no clouds below 1500 m and no cumulonimbus

METAR: EGLF 132050Z 17007KT CAVOK 09/08 Q1025

Time: 21:21 (21:21 UTC)

Forecast

The report was made 4 hours and 18 minutes ago, at 17:03 UTC
Forecast valid from 13 at 18 UTC to 13 at 22 UTC
Wind 8 kt from the South
Visibility 10 km or more
Few clouds at a height of 2000 ft

TAF: EGLF 131703Z 1318/1322 18008KT 9999 FEW020

Weather observations and forecasts of more than 4000 airports (METAR and TAF reports).

The available stations are represented by yellow and red dots on the map.

Hover mouse over dot to see the name of the station.

Then click to see weather observations and forecasts.

To change the map : click on the green buttons with a black cross to zoom in, on the green button with a dash to zoom out, or on the green arrows for adjacent maps.


METAR-TAF: